CW2234 Weather Reports


Display with metric or nautical units.
time (UTC)temp
F
wind
direction
speed
MPH
gust
MPH
rain 1hr
in
rain 24hr
in
rain mn
in
humidity
%
barometer
mb
20260904224606 78 130 2.0 10.0 0.00 0.00 0.00 68 1012.1
20260904223058 78 89 3.0 10.0 0.00 0.00 0.00 68 1012.0
20260904221605 78 130 3.0 12.0 0.00 0.00 0.00 68 1012.1
20260904220119 79 103 3.0 9.0 0.00 0.00 0.00 67 1012.2
20260904214600 78 130 2.0 9.0 0.00 0.00 0.00 67 1012.3
20260904213107 78 106 2.0 10.0 0.00 0.00 0.00 68 1012.4
20260904211606 79 126 2.0 10.0 0.00 0.00 0.00 66 1012.4
20260904210117 80 151 1.0 9.0 0.00 0.00 0.00 65 1012.4
20260904204604 80 137 1.0 5.0 0.00 0.00 0.00 65 1012.6
20260904203102 80 113 2.0 7.0 0.00 0.00 0.00 64 1012.5
20260904201602 79 49 1.0 7.0 0.00 0.00 0.00 65 1012.7
20260904194610 77 314 2.0 6.0 0.00 0.00 0.00 64 1012.9
20260904193116 77 316 5.0 12.0 0.00 0.00 0.00 65 1013.0
20260904191604 76 14 2.0 11.0 0.00 0.00 0.00 67 1013.4
20260904190058 76 301 4.0 12.0 0.00 0.00 0.00 68 1013.5
20260904184621 76 39 5.0 11.0 0.00 0.00 0.00 67 1013.8
20260904183102 76 336 3.0 9.0 0.00 0.00 0.00 68 1013.7
20260904181610 75 255 4.0 10.0 0.00 0.00 0.00 70 1013.7
20260904180119 74 309 4.0 11.0 0.00 0.00 0.00 71 1013.8
20260904174613 75 347 5.0 10.0 0.00 0.00 0.00 71 1013.9
20260904173101 75 355 4.0 10.0 0.00 0.00 0.00 70 1013.7
20260904171606 73 65 3.0 7.0 0.00 0.00 0.00 73 1013.7
20260904170105 73 286 3.0 7.0 0.00 0.00 0.00 72 1013.6
20260904164602 73 333 2.0 6.0 0.00 0.00 0.00 74 1013.4
20260904163110 73 325 4.0 7.0 0.00 0.00 0.00 75 1013.3
20260904161603 72 308 3.0 9.0 0.00 0.00 0.00 77 1013.2
20260904160106 72 328 2.0 6.0 0.00 0.00 0.00 78 1013.2
20260904154600 71 319 2.0 5.0 0.00 0.00 0.00 81 1013.2
20260904153127 70 13 3.0 8.0 0.00 0.00 0.00 82 1013.2
20260904151602 69 318 3.0 9.0 0.00 0.00 0.00 83 1013.1
20260904150100 68 309 3.0 7.0 0.00 0.00 0.00 85 1013.1
20260904144600 68 279 2.0 6.0 0.00 0.00 0.00 86 1013.0
20260904143058 66 0 0.0 2.0 0.00 0.00 0.00 88 1012.8
20260904141602 65 240 0.0 2.0 0.00 0.00 0.00 89 1012.7
20260904140104 65 0 0.0 3.0 0.00 0.00 0.00 89 1012.6
20260904134603 65 242 1.0 3.0 0.00 0.00 0.00 90 1012.4
20260904133105 65 235 1.0 3.0 0.00 0.00 0.00 90 1012.4
20260904131604 64 170 1.0 4.0 0.00 0.00 0.00 90 1012.4
20260904124608 64 0 0.0 1.0 0.00 0.00 0.00 89 1012.3
20260904123116 64 0 0.0 0.0 0.00 0.00 0.00 89 1012.2
20260904121603 64 0 0.0 0.0 0.00 0.00 0.00 89 1012.1
20260904120110 64 0 0.0 1.0 0.00 0.00 0.00 88 1012.1
20260904114605 65 0 0.0 0.0 0.00 0.00 0.00 88 1012.1
20260904113103 65 0 0.0 0.0 0.00 0.00 0.00 88 1012.2
20260904111606 65 0 0.0 2.0 0.00 0.00 0.00 87 1012.1
20260904110110 66 0 0.0 1.0 0.00 0.00 0.00 87 1012.2
20260904104604 66 0 0.0 0.0 0.00 0.00 0.00 87 1012.2
20260904103101 66 0 0.0 1.0 0.00 0.00 0.00 87 1012.1
20260904101615 66 0 0.0 0.0 0.00 0.00 0.00 87 1011.9
20260904094604 67 0 0.0 2.0 0.00 0.00 0.00 87 1012.1
20260904093118 66 0 0.0 2.0 0.00 0.00 0.00 88 1012.0
20260904091601 66 117 1.0 2.0 0.00 0.00 0.00 88 1012.1
20260904090059 65 0 0.0 0.0 0.00 0.00 0.00 88 1012.1
20260904084603 66 0 0.0 0.0 0.00 0.00 0.00 87 1012.2
20260904083105 66 0 0.0 0.0 0.00 0.00 0.00 87 1012.2
20260904081600 66 0 0.0 2.0 0.00 0.00 0.00 87 1012.3
20260904074604 67 0 0.0 2.0 0.00 0.00 0.00 86 1012.2
20260904073101 67 0 0.0 2.0 0.00 0.00 0.00 87 1012.3
20260904071601 67 0 0.0 2.0 0.00 0.00 0.00 87 1012.2
20260904070107 67 0 0.0 2.0 0.00 0.00 0.00 87 1012.2
20260904064602 67 0 0.0 1.0 0.00 0.00 0.00 87 1012.2
20260904063101 67 0 0.0 1.0 0.00 0.00 0.00 86 1012.1
20260904061607 68 0 0.0 1.0 0.00 0.00 0.00 86 1011.9
20260904060108 68 0 0.0 1.0 0.00 0.00 0.00 86 1011.9
20260904054604 68 0 0.0 1.0 0.00 0.00 0.00 86 1012.0
20260904053102 68 117 0.0 2.0 0.00 0.00 0.00 86 1012.0
20260904051604 68 117 0.0 3.0 0.00 0.00 0.00 86 1012.1
20260904050104 69 0 0.0 3.0 0.00 0.00 0.00 86 1012.1
20260904044611 69 0 0.0 4.0 0.00 0.00 0.00 86 1012.1
20260904043059 69 0 1.0 6.0 0.00 0.00 0.00 86 1011.9
20260904041557 69 110 1.0 6.0 0.00 0.00 0.00 85 1011.9
20260904040104 69 147 1.0 5.0 0.00 0.00 0.00 85 1011.8
20260904034601 69 0 1.0 5.0 0.00 0.00 0.00 84 1011.7
20260904033059 69 111 1.0 6.0 0.00 0.00 0.00 83 1011.6
20260904031602 70 0 1.0 7.0 0.00 0.00 0.00 83 1011.5
20260904030103 70 0 0.0 5.0 0.00 0.00 0.00 83 1011.5
20260904024601 70 0 0.0 4.0 0.00 0.00 0.00 82 1011.4
20260904023106 70 0 0.0 4.0 0.00 0.00 0.00 83 1011.4
20260904021609 71 0 1.0 6.0 0.00 0.00 0.00 83 1011.4
20260904020101 71 0 1.0 5.0 0.00 0.00 0.00 81 1011.4
20260904014600 72 0 0.0 8.0 0.00 0.00 0.00 79 1011.5
20260904013102 73 118 1.0 5.0 0.00 0.00 0.00 76 1011.5
20260904011613 73 136 2.0 10.0 0.00 0.00 0.00 74 1011.5
20260904010113 74 117 1.0 6.0 0.00 0.00 0.00 73 1011.3
20260904004616 73 127 2.0 10.0 0.00 0.00 0.00 74 1011.5
20260904003102 74 0 2.0 10.0 0.00 0.00 0.00 74 1011.6
20260904001604 75 126 3.0 11.0 0.00 0.00 0.00 74 1011.6
20260904000109 75 126 2.0 10.0 0.00 0.00 0.00 73 1011.6
20260903234604 75 153 1.0 8.0 0.00 0.00 0.00 74 1011.6
20260903233102 76 124 2.0 10.0 0.00 0.00 0.00 74 1011.7
20260903231601 76 0 1.0 7.0 0.00 0.00 0.00 73 1011.8
20260903230104 75 108 2.0 8.0 0.00 0.00 0.00 73 1011.9